sat.trackr.live / text

‹ back to catalog

GALAXY 16 (G-16)

NORAD 29236 · 2006-023A

PAYLOAD ACTIVE UNKNOWN

§ Identity

Operator
Country
US
Launch date
2006-06-18
Launch site
SEAL
Launch vehicle
Mass (kg)
RCS (m²)
251.79

Purposes: comms

External: N2YO · Heavens-Above · Gunter

§ Orbital elements

Epoch: 2026-05-25T03:16:25.517280Z

Period
1,436.09 min
Inclination
0.0627°
Eccentricity
0.0002644
Mean motion
1.00272223 rev/d
Perigee alt
35,775.3 km
Apogee alt
35,797.6 km
Semi-major
42,164.6 km
B*
0.0000e+0
RAAN
105.9902°
Arg perigee
314.1429°
Mean anomaly
132.7071°
Rev number
7,274

§ Raw data

GALAXY 16 (G-16)1 29236U 06023A   26145.13640645 -.00000129  00000+0  00000+0 0  99912 29236   0.0627 105.9902 0002644 314.1429 132.7071  1.00272223 72745

JSON: /api/v1/satellites/29236 · /tle

For live sub-satellite position, see the globe view (requires WebGL).

§ Visibility from observer

Set your observer location to see the next 7 days of passes ≥ 10°. The values pass through the URL so the page stays shareable.

No JS? Fill the form by hand. The geolocation button needs JavaScript.